Regional Weather Roundup
Issued by NWS

Home | Current Version | Previous Version | Graphics & Text | Print | Product List | Glossary On
Versions: 1 2 3 4 5 6 7 8 9 10 11 12 13 14 15 16 17 18 19 20 21 22 23 24 25 26 27 28 29 30 31 32 33 34 35 36 37 38 39 40 41 42 43 44 45 46 47 48 49 50
588
ASUS45 KTFX 061010
RWRMT
MONTANA REGIONAL WEATHER ROUNDUP
NATIONAL WEATHER SERVICE GREAT FALLS MT
400 AM MDT FRI MAY 06 2016

NOTE: "FAIR" INDICATES FEW OR NO CLOUDS BELOW 12000 FEET WITH NO
SIGNIFICANT WEATHER AND/OR OBSTRUCTIONS TO VISIBILITY.

MTZ001>007-043-061100-
WEST OF THE DIVIDE

CITY           SKY/WX    TMP DP  RH WIND       PRES   REMARKS
KALISPELL      LGT RAIN  53  45  74 N16       30.09R
MISSOULA       MOCLDY    51  45  79 CALM      30.06R
BUTTE          CLOUDY    46  37  71 VRB3      30.08R
MULLAN PASS    LGT RAIN  41  32  70 VRB5        N/A  VSB 1
ANACONDA         N/A     48  37  66 N13       30.09R
DEER LODGE       N/A     52  37  58 N12       30.10F
EUREKA           N/A     52  45  76 CALM      30.12R
HAMILTON         N/A     55  43  62 NW8       30.01R
LIBBY            N/A     55  48  76 SE3       30.08R
PLAINS           N/A     56  52  86 N3        30.07R
$$

MTZ008-052>055-061100-
SOUTHWEST MONTANA

CITY           SKY/WX    TMP DP  RH WIND       PRES   REMARKS
BOZEMAN        CLOUDY    48  41  76 S9        30.02R
DILLON         CLOUDY    50  37  61 NE23      29.98R
ENNIS          PTCLDY    52  39  62 N12G21    30.06S
THREE FORKS      N/A     56  21  25 N8        30.02R
TWIN BRIDGES     N/A     53  36  52 N23       29.97R
$$

MTZ009-010-012-014-046-048-049-054-061100-
EAST SLOPES AND CENTRAL MONTANA

CITY           SKY/WX    TMP DP  RH WIND       PRES   REMARKS
CUT BANK       CLOUDY    45  42  89 NW12      30.21R
GREAT FALLS    CLOUDY    48  42  80 N10       30.18R
MALMSTROM AFB  CLOUDY    48  44  83 N9        30.18S
HELENA         LGT RAIN  51  41  68 NW10      30.11R
CHOTEAU          N/A     46  45  93 N10       30.20R
CONRAD           N/A     47  47 100 NW6       30.21R
$$

MTZ011-013-016-021-045-047-050-051-061100-
NORTH CENTRAL MONTANA

CITY           SKY/WX    TMP DP  RH WIND       PRES   REMARKS
HAVRE          RAIN      49  46  90 N9        30.18R
LEWISTOWN      CLOUDY    50  42  74 W12       30.14R
N BAR RANCH    CLOUDY    54  41  62 NW14G21   30.12R
$$

MTZ017>020-022>027-061-062-061100-
NORTHEAST MONTANA

CITY           SKY/WX    TMP DP  RH WIND       PRES   REMARKS
GLASGOW        CLOUDY    55  40  56 N16G24    29.98R
JORDAN           N/A     58  42  55 N20G31    29.99R
SIDNEY         CLOUDY    61  43  51 NW17      29.88R
WOLF POINT     CLOUDY    59  43  55 N30G41    29.91R
POPLAR           N/A     57  43  58 N18G24    29.93R
SCOBEY           N/A     52  38  58 NW12      29.96S
$$

MTZ028>42-056>058-061100-
SOUTHCENTRAL AND SOUTHEAST MONTANA

CITY           SKY/WX    TMP DP  RH WIND       PRES   REMARKS
BAKER          CLOUDY    52  45  77 CALM      29.88R
BILLINGS       CLOUDY    60  39  45 N21G31    29.97R
LIVINGSTON     PTCLDY    53  40  61 E5        30.03R
MILES CITY     CLOUDY    62  43  49 NW20      29.90R
EKALAKA          N/A     60  39  45 SE1       29.88R
FORSYTH          N/A     64  45  48 N14       29.91R
LAUREL           N/A     59  37  43 N9        29.99R
ROUNDUP          N/A     57  38  49 N25       29.92R
$$

REGIONAL REPORTS...DAKOTAS

CITY           SKY/WX    TMP DP  RH WIND       PRES   REMARKS
WILLISTON      CLOUDY    60  44  55 N20       29.87R
MINOT          CLOUDY    69  39  33 NW15      29.76R
DICKINSON      CLOUDY    53  44  71 W9        29.80R
BEACH            N/A     54  41  62 NW10      29.89S
CROSBY           N/A     55  41  58 NW23G31   29.91R
TIOGA            N/A     57  45  62 N18       29.90R
WATFORD CITY     N/A     59  45  58 N9        29.85R
BISMARCK       CLOUDY    51  47  86 E5        29.78S
GRAND FORKS    CLEAR     60  47  61 SW10      29.67F
FARGO          PTCLDY    62  42  47 S7        29.75S
BUFFALO SD       N/A     55  44  66 NW5       29.80R
RAPID CITY     PTCLDY    51  41  68 CALM      29.85F
$$

REGIONAL REPORTS...WYOMING/IDAHO/WASHINGTON

CITY           SKY/WX    TMP DP  RH WIND       PRES   REMARKS
GILLETTE       CLOUDY    45  39  79 CALM      29.91R
SHERIDAN       CLOUDY    51  41  68 S3        29.90R
BUFFALO WY     CLOUDY    59  33  37 W8        29.95S
CODY           CLOUDY    57  36  44 N13       29.99R
YELLOWSTONE LA   N/A     36  30  79 CALM      30.11S
IDAHO FALLS    CLOUDY    56  38  50 N3        29.89R
SALMON         PTCLDY    48  36  61 CALM      29.90S
BOISE          CLOUDY    58  48  69 NW8       29.82S
SPOKANE        CLOUDY    57  49  74 N9        29.97F
$$

REGIONAL REPORTS...ALBERTA

CITY           SKY/WX    TMP DP  RH WIND       PRES   REMARKS
EDMONTON       PTCLDY    39  23  52 W7        30.14R
CALGARY        CLEAR     43  37  81 W5        30.23R
LETHBRIDGE     CLOUDY    48  43  81 W9        30.22R
MEDICINE HAT   MOCLDY    46  41  81 W5        30.20R
$$

REGIONAL REPORTS...SASKATCHEWAN

CITY           SKY/WX    TMP DP  RH WIND       PRES   REMARKS
SWIFT CURRENT  MOCLDY    45  37  76 NW13      30.09R
REGINA         MOCLDY    50  41  71 N15G22    30.00R
SASKATOON      MOCLDY    39  36  87 NW9       30.09R
$$




USA.gov is the U.S. government's official web portal to all federal, state and local government web resources and services.